RH
45 44 51 70 58 77 89 81 88 92 88 94 81 94 74 65 64 65 66 81 70 62 52 48 63 64 69 59 58 58 56 62 89 98 77 59 54 49 46 57 69 58 53 34
44 47 48 54 46 69 82 78 90 95 98 84 73 67 67 66 59 59 56 58 82 78 75 72 71 71 62 63 58 57 53 72 96 100 86 72 71 61 52 51 61 68 59 40
43 50 49 49 43 48 80 77 94 94 95 87 82 76 71 68 62 62 55 53 47 62 63 60 73 75 69 62 58 63 53 60 67 59 66 62 77 67 63 59 73 54 51 43
47 50 51 46 40 69 75 68 74 76 90 82 73 75 76 68 66 56 58 59 60 51 62 65 69 68 73 67 70 60 55 87 77 56 60 68 66 64 67 86 64 65 48 41
50 52 53 46 42 75 64 65 75 74 66 63 73 73 74 73 76 74 67 65 66 54 60 64 65 66 69 73 70 73 61 90 70 76 62 68 72 62 63 64 61 62 61 62
50 58 53 45 44 54 66 87 85 59 60 60 69 64 62 70 73 68 72 69 61 73 83 78 69 57 51 53 69 82 78 77 80 73 63 60 63 50 52 56 60 60 66 45
55 61 53 46 45 44 48 77 71 50 56 54 56 56 60 71 74 75 68 62 61 72 60 72 49 49 51 51 58 54 66 67 72 77 62 63 44 40 44 48 46 44 46 46
60 64 53 52 40 47 49 59 54 46 54 51 58 61 64 64 66 76 70 56 54 59 60 56 60 61 59 61 59 54 49 55 75 73 61 47 54 52 50 51 55 46 52 49
71 64 58 54 45 50 49 62 49 49 48 64 69 56 61 82 72 72 60 46 58 67 64 59 68 69 62 71 69 58 54 50 54 65 75 62 42 42 45 46 59 56 57 60
72 67 64 57 49 47 49 67 58 57 62 71 62 56 56 55 57 66 57 59 68 63 69 72 71 70 60 67 64 69 67 69 74 70 69 50 51 48 48 65 69 57 53 54
70 66 63 57 53 58 55 72 60 60 65 74 74 71 60 56 52 68 57 70 69 70 78 72 73 65 65 64 61 64 64 66 66 66 69 69 48 53 61 63 44 42 42 46
68 69 64 56 54 55 51 78 59 54 62 69 77 80 79 74 66 56 69 75 79 77 78 72 73 80 74 71 61 58 72 64 63 61 61 58 44 57 49 49 54 51 52 53
69 73 61 57 56 52 49 58 54 54 69 67 61 64 68 66 69 69 51 65 67 70 72 74 70 75 74 69 72 74 66 58 64 55 62 54 45 55 45 49 59 57 60 68
92 76 56 51 52 51 48 52 55 56 67 69 69 67 70 69 69 70 71 66 71 68 65 62 74 72 74 82 76 66 61 47 56 48 44 52 52 48 54 62 60 60 68 73
96 73 61 51 49 51 49 51 58 55 69 73 71 70 67 65 72 74 71 65 62 62 64 68 70 69 63 63 62 58 50 70 78 66 56 66 66 66 69 69 66 66 72 75
86 71 57 56 59 52 53 74 60 57 59 82 78 73 68 74 70 70 69 71 69 68 64 72 71 68 72 59 48 52 53 59 69 78 67 76 76 72 68 70 79 74 76 75
80 74 62 60 64 61 76 73 72 56 53 74 87 84 66 90 84 78 71 75 75 68 75 74 68 65 72 69 57 55 61 68 76 76 81 90 84 93 83 85 86 85 83 79
93 97 76 66 68 72 76 77 66 57 54 65 85 77 72 76 81 79 81 77 72 77 76 76 74 73 73 73 59 53 63 71 82 75 73 76 73 78 82 86 87 89 91 95
95 94 70 64 65 79 85 77 69 57 58 80 74 70 72 68 77 83 87 77 78 77 73 72 73 77 85 61 59 63 67 77 81 73 72 67 68 78 87 86 96 96 97 96
78 70 72 86 96 87 84 67 71 81 82 78 85 83 78 75 76 79 82 86 82 89 75 76 80 74 62 58 59 67 73 74 80 89 88 78 81 74 80 88 88 94 95 97
68 78 90 97 92 73 70 78 74 66 71 80 86 82 78 78 81 81 79 92 87 91 88 82 84 76 63 60 68 68 67 69 75 80 79 76 69 70 80 85 91 90 88 94
62 79 82 76 69 72 64 83 72 62 70 91 80 85 77 82 83 81 85 88 89 93 89 90 96 75 61 58 62 66 68 69 68 70 73 73 73 68 75 84 87 94 93 93
65 66 76 69 69 52 41 52 70 79 93 93 92 84 81 83 82 89 80 92 83 88 93 83 75 62 53 53 60 66 78 77 75 70 71 75 79 80 79 81 85 93 92 86
76 73 60 67 54 51 56 57 76 82 89 87 80 87 86 87 89 83 86 69 90 91 89 86 74 66 58 59 62 68 59 61 73 84 82 82 86 85 84 89 87 92 91 87
70 71 58 72 87 92 88 93 94 89 84 86 88 86 77 84 76 71 69 70 81 77 84 76 72 63 64 60 55 57 60 62 65 67 73 79 85 89 87 83 87 97 99 94
82 83 83 85 84 99 94 94 96 86 86 79 77 88 87 82 76 74 77 85 88 75 83 74 62 56 58 58 58 62 65 67 66 65 64 64 69 74 85 92 90 98 100 100
71 85 76 79 81 84 84 71 74 87 78 79 81 70 64 78 85 84 71 84 75 82 77 70 69 64 62 65 66 66 68 68 68 66 67 70 69 74 92 86 79 91 98 100
Wind_Speed
5 4 4 5 5 6 10 2 1 1 4 2 0 1 2 2 4 5 4 2 2 2 3 4 2 2 2 3 6 5 1 5 5 3 3 2 1 8 12 6 5 1 3 3
6 4 3 3 2 12 4 3 2 0 1 1 1 1 2 2 3 2 5 4 2 3 2 3 1 1 2 3 3 2 4 4 5 3 1 2 6 6 6 5 2 6 6 2
7 5 3 3 2 11 6 3 3 1 1 1 1 1 1 2 1 3 2 3 6 4 2 1 5 3 2 3 1 4 1 3 3 5 3 6 8 13 10 9 7 14 14 15
8 5 2 2 4 14 7 0 2 1 4 4 3 1 1 2 2 2 3 4 1 2 3 3 4 4 6 3 2 2 2 2 2 3 4 2 3 9 15 12 16 14 15 18
9 6 3 1 8 15 3 4 3 2 3 2 4 0 1 2 2 4 4 6 6 3 3 3 4 7 3 3 2 2 1 3 1 2 1 2 4 8 8 13 17 17 18 21
11 7 5 2 9 15 4 3 2 2 2 3 3 2 2 2 0 4 5 1 5 9 4 2 3 3 2 3 6 3 2 4 2 2 2 2 6 6 10 7 7 8 13 15
12 9 8 5 5 15 5 5 4 3 4 3 2 2 2 3 3 2 4 5 1 3 3 3 5 7 7 5 5 2 5 4 1 1 1 3 3 2 2 6 6 8 12 12
14 11 9 8 6 6 8 10 3 3 5 4 4 5 3 2 3 3 3 5 4 4 2 2 4 3 4 4 4 2 2 3 2 2 4 3 3 2 1 1 5 4 8 12
16 13 11 9 10 10 12 10 7 3 7 3 2 3 3 3 2 1 3 2 5 1 1 0 1 2 2 3 4 2 3 4 1 2 2 1 3 3 1 2 6 13 13 15
19 15 11 10 9 8 7 7 9 6 5 3 1 2 3 1 2 1 3 6 5 3 1 2 2 2 1 3 3 3 3 2 4 4 3 2 8 6 1 4 4 13 13 14
21 16 12 12 12 4 8 8 7 5 4 4 2 2 3 2 1 2 2 2 1 1 2 2 3 3 2 1 1 1 3 2 2 2 4 4 12 2 5 6 8 12 14 14
22 17 13 13 14 11 13 8 17 16 8 6 7 9 7 4 2 1 2 2 2 2 1 1 1 1 1 1 3 1 2 3 2 2 2 4 7 2 5 9 12 13 16 16
23 18 14 14 11 12 19 22 25 19 5 5 2 4 6 7 2 2 0 1 0 1 3 2 2 1 2 1 2 1 2 6 1 5 3 6 13 6 9 12 12 13 13 16
23 19 17 16 15 23 28 18 7 6 7 4 3 3 4 6 4 3 4 5 3 3 1 1 1 2 2 1 1 2 3 3 5 5 5 14 5 12 16 19 15 13 15 16
24 20 19 16 20 27 13 12 7 6 2 4 4 2 6 6 5 6 6 4 2 2 1 2 1 1 3 2 2 3 1 2 1 4 10 9 16 18 21 18 15 17 17 20
25 22 22 23 24 21 9 2 5 7 7 5 4 1 4 6 6 7 9 6 3 2 1 2 1 1 1 2 1 4 4 5 5 5 9 13 15 17 18 15 18 17 16 17
26 22 22 21 7 4 4 2 6 7 6 3 4 3 2 3 2 2 3 4 2 1 2 1 1 1 2 1 3 7 4 5 8 7 5 8 7 9 16 18 19 19 21 23
26 25 21 14 13 12 6 9 8 6 8 4 4 2 2 3 1 1 2 1 1 2 2 1 1 0 1 3 2 2 6 8 8 5 9 11 15 15 12 15 16 13 13 13
31 28 24 11 4 3 6 11 10 9 3 3 3 3 3 2 1 1 2 1 1 1 1 1 1 2 3 1 2 5 4 5 10 11 11 12 11 12 12 13 10 9 10 10
36 21 4 3 3 15 9 2 2 3 3 3 3 1 3 0 1 2 2 1 1 1 2 2 2 3 4 5 2 4 7 7 8 10 9 9 12 13 14 14 11 10 9 13
8 3 2 8 10 3 3 3 3 2 3 3 2 1 3 1 2 2 1 2 1 0 2 2 1 3 3 3 2 3 5 8 11 11 14 14 13 13 14 14 15 15 14 13
13 16 12 6 2 2 5 2 1 2 3 2 3 2 2 2 1 1 2 1 2 2 4 2 2 2 1 1 3 7 9 11 12 14 14 16 16 16 15 16 17 17 16 15
12 4 4 2 2 4 4 3 1 2 4 4 3 3 2 2 1 2 1 2 2 5 3 3 2 1 1 2 4 7 8 11 13 15 14 16 18 17 17 17 17 18 17 15
2 4 6 2 1 2 2 2 3 2 4 5 3 3 2 2 2 2 2 2 3 3 4 3 2 2 3 5 5 5 10 13 11 12 13 14 15 17 18 18 18 16 17 16
2 3 4 3 3 3 2 3 4 3 5 4 4 4 2 2 2 2 1 2 4 4 2 2 2 4 5 7 7 9 9 9 10 12 12 14 16 16 19 19 18 17 17 16
3 4 6 3 3 2 3 2 3 4 4 3 3 3 3 2 1 4 5 3 5 2 2 2 2 4 6 6 8 12 13 13 14 14 15 16 17 17 19 22 21 20 19 17
4 3 3 3 3 4 4 3 3 7 2 2 2 3 2 3 2 3 3 4 1 1 2 2 5 6 7 9 14 15 14 13 14 15 15 17 19 20 17 15 18 18 19 16
Wind_Direction
227 251 283 322 359 157 173 202 130 144 166 213 81 208 195 276 152 192 163 72 111 149 125 127 83 72 38 153 155 143 76 120 135 96 22 38 261 228 219 227 187 225 309 262
208 225 269 325 332 183 170 140 106 223 245 146 196 237 249 250 164 140 168 142 193 202 140 110 148 100 35 178 161 123 168 129 118 119 30 270 226 198 218 232 359 211 256 216
194 215 249 304 279 192 183 157 132 167 217 315 220 327 71 133 52 83 81 91 147 166 137 226 148 124 81 167 111 73 160 136 250 192 93 138 198 212 206 209 242 247 234 256
184 202 214 280 185 176 176 315 138 139 173 203 196 236 306 127 88 18 52 104 56 179 131 131 126 114 116 63 35 46 9 106 65 70 90 147 203 210 205 205 232 246 260 265
175 189 184 198 172 171 142 161 160 170 108 139 162 315 65 108 62 356 56 89 74 125 109 347 164 144 175 160 111 74 32 128 146 124 66 223 250 235 233 238 247 258 267 280
172 176 160 141 177 173 138 154 116 253 90 147 181 127 100 77 298 68 39 108 112 86 81 20 360 355 107 151 158 143 184 146 165 161 334 260 244 248 226 231 246 255 267 284
170 167 153 116 136 193 166 164 135 178 114 127 112 121 85 82 59 65 13 24 31 54 298 156 90 85 99 97 77 137 148 126 74 140 264 227 73 281 280 255 276 264 272 297
166 158 144 135 97 153 185 149 154 136 112 108 108 83 74 95 66 74 63 29 4 323 197 176 143 130 163 94 64 109 215 144 111 222 223 310 136 134 212 231 99 41 342 332
162 150 140 129 116 105 133 116 110 98 131 92 78 95 51 104 33 111 41 49 336 265 64 135 179 170 104 154 133 83 116 113 203 173 288 303 76 21 357 230 192 10 352 339
158 149 142 133 130 131 143 116 120 96 103 73 239 112 94 86 139 76 26 344 352 331 126 148 170 145 24 179 182 160 171 174 222 214 242 263 10 335 164 242 21 346 346 339
153 149 144 139 141 157 152 111 120 107 93 74 30 61 109 124 18 122 43 210 219 302 157 208 148 175 124 182 77 140 206 207 196 196 222 236 0 104 338 360 332 334 330 326
153 150 142 139 139 130 126 96 101 101 83 100 94 79 71 62 32 135 69 25 55 7 356 111 112 115 178 195 150 124 175 354 338 285 20 90 359 321 73 355 326 328 321 321
149 147 137 136 140 143 132 120 115 100 103 103 81 45 43 51 42 336 209 138 14 217 5 40 80 107 347 156 79 274 111 13 319 320 135 328 318 162 333 341 327 318 314 313
148 141 135 134 129 137 134 126 132 96 106 101 78 30 50 25 27 41 62 101 101 81 23 128 113 114 324 79 88 355 7 360 334 273 299 335 136 334 328 321 314 312 318 315
145 140 142 135 143 146 135 116 104 101 61 121 138 136 38 30 42 64 75 90 73 56 98 34 75 148 180 145 178 148 125 97 295 272 321 296 291 308 313 312 312 315 312 312
145 141 143 134 126 136 132 97 71 117 109 112 117 48 37 39 74 65 61 56 56 67 68 99 119 34 280 176 168 153 169 206 220 265 295 290 287 297 300 311 308 304 305 304
141 142 147 155 128 88 68 101 142 132 105 100 112 104 54 355 11 15 49 49 60 41 107 92 88 209 286 230 197 185 278 297 290 286 289 279 271 296 303 295 296 307 303 303
137 138 137 134 119 95 71 79 102 103 93 65 110 89 135 11 84 113 20 68 49 33 78 125 133 145 318 251 231 268 322 323 305 287 297 282 296 297 307 307 305 300 301 303
135 132 131 120 68 89 124 107 87 81 76 108 80 126 147 14 104 247 123 299 142 45 132 111 196 162 224 204 241 279 298 296 294 305 297 296 300 308 307 313 305 304 302 309
138 129 148 107 109 124 122 87 49 29 5 40 84 121 116 241 181 132 172 3 80 136 83 131 232 250 250 242 234 305 308 300 297 299 300 301 304 313 317 318 312 306 308 312
137 121 82 123 132 110 38 78 56 359 60 36 98 145 123 127 202 127 125 122 56 26 112 266 229 256 202 143 272 263 282 294 294 284 285 287 282 293 305 310 311 307 307 307
166 125 119 129 73 63 84 38 319 47 124 117 124 118 106 129 267 144 152 114 154 245 146 206 247 273 125 207 298 315 314 315 305 301 296 296 292 287 289 294 302 301 303 305
133 91 99 106 4 66 112 150 108 148 165 158 159 120 90 147 116 97 177 184 215 128 203 233 218 178 276 327 309 306 290 295 300 303 306 306 304 300 287 286 289 294 292 292
117 146 84 84 96 85 147 130 125 124 139 137 125 104 101 100 84 117 166 218 178 240 229 220 168 220 282 306 295 291 302 310 301 289 297 299 295 296 293 277 279 281 282 288
105 75 97 87 118 62 92 102 111 107 138 121 109 86 93 102 111 192 276 220 242 237 242 160 224 254 271 284 301 301 303 302 295 301 306 306 306 301 296 291 278 268 268 270
87 86 92 112 93 114 144 148 124 157 140 112 67 98 80 142 189 183 202 210 227 258 212 208 267 272 282 291 301 303 304 301 299 300 303 304 306 305 304 305 294 275 268 260
67 62 58 138 82 124 147 145 143 163 153 115 122 122 166 105 186 225 197 217 233 279 229 249 250 268 297 297 298 295 297 294 290 295 298 296 303 301 289 290 302 291 279 262